Location: ??? ???
(33.4974°N, 35.4618°E)
Time: 18:20:13
(UTC+00:00)

In-Cosmos 22 Rocket - Pass Details

Date: 29 October 2020
Orbit: 790 x 888 km, 81.2° (Epoch: 29 November)

Event Time Altitude Azimuth Distance (km) Brightness Sun altitude
Rises 15:54:38 0° 351° (N) 3,318 7.3 -14.3°
Reaches altitude 10° 15:57:00 10° 351° (N) 2,394 6.6 -14.8°
Maximum altitude 16:02:25 87° 264° (W) 827 4.1 -15.9°
Drops below altitude 10° 16:07:57 10° 175° (S) 2,441 6.6 -17.0°
Sets 16:10:23 0° 174° (S) 3,387 7.3 -17.5°
